Terminal Aerodrome Forecast
Issued by NWS St Louis, MO

Home | Current Version | Previous Version | Text Only | Print | Product List | Glossary On
Versions: 1 2 3 4 5 6 7 8 9 10 11 12 13 14 15 16 17 18 19 20 21 22 23
000
FTUS43 KLSX 240300 AAB
TAFCOU
TAF AMD
KCOU 240302Z 2403/2424 28010KT 2SM -RA BR OVC005
     FM240800 30020G30KT 5SM -RASN OVC010
     FM241200 29020G30KT P6SM OVC015
     FM242200 27016G26KT P6SM SCT015 OVC040=

USA.gov is the U.S. government's official web portal to all federal, state and local government web resources and services.